Tracking 17142 objects as of 28-May-2015
HD Live streaming from Space Station

CZ-2D DEB

Track CZ-2D DEB now!
10-day predictions
CZ-2D DEB is classified as:


NORAD ID: 35272
Int'l Code: 2005-024L
Perigee: 522.9 km
Apogee: 540.5 km
Inclination: 97.6 °
Period: 95.1 minutes
Semi major axis: 6902 km
RCS: 0.0215 m2 (small)
Launch date: July 5, 2005
Source: People's Republic of China (PRC)

Note: This is SATELLITE DEBRIS
Your satellite tracking list
Your tracking list is empty





NASA's NSSDC Master Catalog

Two Line Element Set (TLE):
1 35272U 05024L   15144.93089272  .00001932  00000-0  11055-3 0  9995
2 35272 097.6491 175.2723 0012702 303.5630 175.5086 15.13818961523708

Source of the keplerian elements: AFSPC

N2YO: 995